When you browse on this site, cookies collect data to enhance your experience and personalize the content and advertising you see.
Visit our Privacy Policy to learn more. By continuing to use the site, you agree to this use of cookies and data.

Hourly Weather Yerevan

Today, 7 July, Tuesday

Time Temperature Precipitation Wind Pressure Humidity
00:00 +24°C° 0 mm 2 mps 687 mmHg 45%
01:00 +23°C° 0 mm 1 mps 687 mmHg 47%
02:00 +23°C° 0 mm 1 mps 687 mmHg 49%
03:00 +22°C° 0 mm 1 mps 687 mmHg 51%
04:00 +23°C° 0 mm 1 mps 687 mmHg 50%
05:00 +23°C° 0 mm 1 mps 687 mmHg 50%
06:00 +24°C° 0 mm 1 mps 687 mmHg 50%
07:00 +26°C° 0 mm 1 mps 687 mmHg 44%
08:00 +27°C° 0 mm 1 mps 688 mmHg 38%
09:00 +29°C° 0 mm 1 mps 688 mmHg 33%
10:00 +31°C° 0 mm 1 mps 688 mmHg 30%
11:00 +32°C° 0 mm 1 mps 688 mmHg 27%
12:00 +34°C° 0 mm 2 mps 688 mmHg 24%
13:00 +35°C° 0 mm 2 mps 688 mmHg 23%
14:00 +36°C° 0 mm 2 mps 688 mmHg 21%
15:00 +37°C° 0 mm 2 mps 687 mmHg 20%
16:00 +37°C° 0 mm 2 mps 687 mmHg 21%
17:00 +36°C° 0 mm 2 mps 687 mmHg 22%
18:00 +36°C° 0 mm 2 mps 687 mmHg 23%
19:00 +34°C° 0 mm 3 mps 687 mmHg 29%
20:00 +30°C° 0 mm 3 mps 687 mmHg 34%
21:00 +28°C° 0 mm 3 mps 687 mmHg 40%
22:00 +27°C° 0 mm 3 mps 687 mmHg 41%
23:00 +27°C° 0 mm 2 mps 687 mmHg 42%

Tomorrow, 8 July, Wednesday

Time Temperature Precipitation Wind Pressure Humidity
00:00 +26°C° 0 mm 1 mps 687 mmHg 44%
01:00 +25°C° 0 mm 1 mps 687 mmHg 46%
02:00 +24°C° 0 mm 1 mps 686 mmHg 48%
03:00 +24°C° 0 mm 1 mps 686 mmHg 51%
04:00 +24°C° 0 mm 1 mps 686 mmHg 50%
05:00 +25°C° 0 mm 1 mps 687 mmHg 50%
06:00 +26°C° 0 mm 1 mps 687 mmHg 50%
07:00 +28°C° 0 mm 1 mps 687 mmHg 44%
08:00 +30°C° 0 mm 1 mps 687 mmHg 38%
09:00 +31°C° 0 mm 1 mps 687 mmHg 32%
10:00 +33°C° 0 mm 1 mps 687 mmHg 29%
11:00 +35°C° 0 mm 2 mps 687 mmHg 26%
12:00 +37°C° 0 mm 2 mps 687 mmHg 24%
13:00 +37°C° 0 mm 3 mps 687 mmHg 23%
14:00 +37°C° 0 mm 3 mps 686 mmHg 22%
15:00 +38°C° 0 mm 4 mps 686 mmHg 22%
16:00 +38°C° 0 mm 4 mps 686 mmHg 21%
17:00 +38°C° 0 mm 4 mps 686 mmHg 21%
18:00 +38°C° 0 mm 4 mps 687 mmHg 21%
19:00 +35°C° 0 mm 5 mps 687 mmHg 27%
20:00 +32°C° 0 mm 6 mps 687 mmHg 33%
21:00 +29°C° 0 mm 6 mps 687 mmHg 39%
22:00 +28°C° 0 mm 6 mps 687 mmHg 42%
23:00 +27°C° 0 mm 5 mps 688 mmHg 45%

Day after tomorrow, 9 July, Thursday

Time Temperature Precipitation Wind Pressure Humidity
00:00 +26°C° 0 mm 5 mps 688 mmHg 48%
01:00 +26°C° 0 mm 4 mps 688 mmHg 50%
02:00 +25°C° 0 mm 4 mps 688 mmHg 53%
03:00 +24°C° 0 mm 3 mps 688 mmHg 55%
04:00 +24°C° 0 mm 3 mps 688 mmHg 55%
05:00 +25°C° 0 mm 3 mps 688 mmHg 55%
06:00 +25°C° 0 mm 2 mps 688 mmHg 55%
07:00 +26°C° 0 mm 3 mps 689 mmHg 50%
08:00 +28°C° 0 mm 3 mps 689 mmHg 45%
09:00 +30°C° 0 mm 3 mps 689 mmHg 40%
10:00 +31°C° 0 mm 3 mps 689 mmHg 36%
11:00 +34°C° 0 mm 3 mps 689 mmHg 32%
12:00 +36°C° 0 mm 2 mps 689 mmHg 28%
13:00 +36°C° 0 mm 3 mps 689 mmHg 27%
14:00 +37°C° 0 mm 3 mps 689 mmHg 26%
15:00 +37°C° 0 mm 4 mps 689 mmHg 24%
16:00 +35°C° 0.1 mm 3 mps 689 mmHg 31%
17:00 +33°C° 0.1 mm 3 mps 688 mmHg 38%
18:00 +29°C° 0.1 mm 2 mps 688 mmHg 45%
19:00 +28°C° 0.1 mm 2 mps 689 mmHg 50%
20:00 +27°C° 0.1 mm 2 mps 689 mmHg 55%
21:00 +25°C° 0.1 mm 2 mps 690 mmHg 61%
22:00 +25°C° 0 mm 2 mps 690 mmHg 61%
23:00 +24°C° 0 mm 1 mps 690 mmHg 61%

10 July, Friday

Time Temperature Precipitation Wind Pressure Humidity
00:00 +24°C° 0 mm 1 mps 690 mmHg 61%
01:00 +23°C° 0 mm 2 mps 690 mmHg 62%
02:00 +23°C° 0 mm 2 mps 689 mmHg 62%
03:00 +21°C° 0 mm 2 mps 689 mmHg 63%
04:00 +23°C° 0 mm 2 mps 690 mmHg 61%
05:00 +24°C° 0 mm 2 mps 690 mmHg 60%
06:00 +24°C° 0 mm 2 mps 690 mmHg 58%
07:00 +26°C° 0 mm 2 mps 690 mmHg 52%
08:00 +28°C° 0 mm 2 mps 690 mmHg 47%
09:00 +30°C° 0 mm 2 mps 691 mmHg 41%
10:00 +31°C° 0.1 mm 2 mps 690 mmHg 38%
11:00 +32°C° 0.1 mm 2 mps 690 mmHg 35%
12:00 +34°C° 0.1 mm 2 mps 690 mmHg 32%
13:00 +35°C° 0.1 mm 2 mps 690 mmHg 30%
14:00 +36°C° 0.1 mm 3 mps 690 mmHg 29%
15:00 +37°C° 0.1 mm 3 mps 690 mmHg 27%
16:00 +35°C° 0.4 mm 4 mps 689 mmHg 34%
17:00 +32°C° 0.4 mm 5 mps 689 mmHg 42%
18:00 +29°C° 0.4 mm 6 mps 689 mmHg 50%
19:00 +28°C° 0.3 mm 5 mps 689 mmHg 53%
20:00 +27°C° 0.3 mm 4 mps 689 mmHg 56%
21:00 +26°C° 0.3 mm 2 mps 690 mmHg 59%
22:00 +25°C° 0.2 mm 2 mps 690 mmHg 62%
23:00 +24°C° 0.2 mm 1 mps 690 mmHg 64%

11 July, Saturday

Time Temperature Precipitation Wind Pressure Humidity
00:00 +23°C° 0.2 mm 1 mps 689 mmHg 67%
01:00 +23°C° 0.1 mm 1 mps 689 mmHg 68%
02:00 +22°C° 0.1 mm 1 mps 689 mmHg 68%
03:00 +22°C° 0.1 mm 1 mps 689 mmHg 68%
04:00 +23°C° 0 mm 1 mps 689 mmHg 67%
05:00 +23°C° 0 mm 1 mps 689 mmHg 65%
06:00 +24°C° 0 mm 1 mps 689 mmHg 63%
07:00 +25°C° 0.1 mm 1 mps 689 mmHg 57%
08:00 +27°C° 0.1 mm 1 mps 689 mmHg 51%
09:00 +29°C° 0.1 mm 2 mps 689 mmHg 45%
10:00 +30°C° 0.1 mm 1 mps 689 mmHg 41%
11:00 +32°C° 0.1 mm 1 mps 689 mmHg 37%
12:00 +34°C° 0.1 mm 1 mps 689 mmHg 32%
13:00 +34°C° 0 mm 1 mps 689 mmHg 30%
14:00 +35°C° 0 mm 1 mps 689 mmHg 28%
15:00 +37°C° 0 mm 2 mps 689 mmHg 25%
16:00 +35°C° 0.2 mm 2 mps 689 mmHg 31%
17:00 +34°C° 0.2 mm 3 mps 688 mmHg 36%
18:00 +32°C° 0.2 mm 4 mps 688 mmHg 41%
19:00 +29°C° 0.3 mm 3 mps 688 mmHg 47%
20:00 +27°C° 0.3 mm 3 mps 688 mmHg 52%
21:00 +26°C° 0.3 mm 2 mps 689 mmHg 58%
22:00 +25°C° 0 mm 1 mps 688 mmHg 60%
23:00 +25°C° 0 mm 1 mps 688 mmHg 62%

12 July, Sunday

Time Temperature Precipitation Wind Pressure Humidity
00:00 +24°C° 0 mm 1 mps 688 mmHg 63%
01:00 +23°C° 0.4 mm 1 mps 688 mmHg 66%
02:00 +23°C° 0.4 mm 1 mps 688 mmHg 69%
03:00 +22°C° 0.4 mm 1 mps 687 mmHg 71%
04:00 +23°C° 0.4 mm 1 mps 688 mmHg 70%
05:00 +23°C° 0.4 mm 1 mps 688 mmHg 68%
06:00 +24°C° 0.4 mm 1 mps 688 mmHg 67%
07:00 +25°C° 0.1 mm 1 mps 688 mmHg 60%
08:00 +27°C° 0.1 mm 1 mps 688 mmHg 54%
09:00 +28°C° 0.1 mm 1 mps 688 mmHg 48%
10:00 +30°C° 0.1 mm 1 mps 688 mmHg 44%
11:00 +31°C° 0.1 mm 1 mps 688 mmHg 40%
12:00 +33°C° 0.1 mm 1 mps 688 mmHg 36%
13:00 +33°C° 0 mm 1 mps 688 mmHg 34%
14:00 +35°C° 0 mm 2 mps 687 mmHg 32%
15:00 +36°C° 0 mm 2 mps 687 mmHg 30%
16:00 +35°C° 0.1 mm 2 mps 687 mmHg 31%
17:00 +35°C° 0.1 mm 3 mps 687 mmHg 33%
18:00 +34°C° 0.1 mm 3 mps 687 mmHg 35%
19:00 +31°C° 0.4 mm 3 mps 687 mmHg 41%
20:00 +29°C° 0.4 mm 3 mps 687 mmHg 47%
21:00 +27°C° 0.4 mm 3 mps 687 mmHg 54%
22:00 +26°C° 0.8 mm 2 mps 687 mmHg 58%
23:00 +25°C° 0.8 mm 2 mps 687 mmHg 63%
Show more